When you browse on this site, cookies collect data to enhance your experience and personalize the content and advertising you see.
Visit our Privacy Policy to learn more. By continuing to use the site, you agree to this use of cookies and data.
  • en Suisse
  • Liste des pays
  • À 7 jours
  • Température de l'eau
  • Carte satellitaire
  • Carte météo
  • Widgets météo
  • user-avatar
    Se connecter

    Météo par heure à Bishkek

    Ce jour, 26 Mars, Mardi

    Heure Température Précipitation Vent Pression Humidité
    00:00 -16°C° 0 mm 4 m/s 483 mmHg 68%
    01:00 -16°C° 0 mm 4 m/s 483 mmHg 66%
    02:00 -16°C° 0 mm 4 m/s 483 mmHg 64%
    03:00 -16°C° 0 mm 4 m/s 483 mmHg 64%
    04:00 -16°C° 0 mm 4 m/s 484 mmHg 64%
    05:00 -17°C° 0 mm 5 m/s 484 mmHg 64%
    06:00 -15°C° 0 mm 4 m/s 485 mmHg 63%
    07:00 -14°C° 0 mm 4 m/s 486 mmHg 62%
    08:00 -11°C° 0 mm 4 m/s 487 mmHg 61%
    09:00 -10°C° 0 mm 4 m/s 487 mmHg 60%
    10:00 -8°C° 0 mm 4 m/s 488 mmHg 59%
    11:00 -7°C° 0 mm 4 m/s 488 mmHg 58%
    12:00 -5°C° 0 mm 4 m/s 488 mmHg 57%
    13:00 -5°C° 0 mm 4 m/s 488 mmHg 57%
    14:00 -4°C° 0 mm 4 m/s 488 mmHg 57%
    15:00 -5°C° 0 mm 4 m/s 488 mmHg 58%
    16:00 -5°C° 0 mm 4 m/s 487 mmHg 59%
    17:00 -7°C° 0 mm 4 m/s 486 mmHg 60%
    18:00 -8°C° 0 mm 4 m/s 486 mmHg 55%
    19:00 -10°C° 0 mm 5 m/s 485 mmHg 51%
    20:00 -10°C° 0 mm 5 m/s 485 mmHg 47%
    21:00 -10°C° 0 mm 5 m/s 485 mmHg 47%
    22:00 -10°C° 0 mm 5 m/s 485 mmHg 47%
    23:00 -10°C° 0 mm 5 m/s 485 mmHg 48%

    Demain, 27 Mars, Mercredi

    Heure Température Précipitation Vent Pression Humidité
    00:00 -9°C° 0 mm 4 m/s 485 mmHg 49%
    01:00 -9°C° 0 mm 4 m/s 485 mmHg 51%
    02:00 -7°C° 0 mm 3 m/s 484 mmHg 53%
    03:00 -8°C° 0.2 mm 3 m/s 484 mmHg 59%
    04:00 -8°C° 0.2 mm 3 m/s 484 mmHg 65%
    05:00 -7°C° 0.2 mm 2 m/s 484 mmHg 71%
    06:00 -7°C° 0.6 mm 2 m/s 485 mmHg 73%
    07:00 -7°C° 0.6 mm 2 m/s 485 mmHg 76%
    08:00 -7°C° 0.6 mm 2 m/s 486 mmHg 79%
    09:00 -7°C° 0.1 mm 3 m/s 486 mmHg 79%
    10:00 -6°C° 0.1 mm 3 m/s 487 mmHg 79%
    11:00 -5°C° 0.1 mm 3 m/s 487 mmHg 79%
    12:00 -5°C° 0.1 mm 3 m/s 487 mmHg 79%
    13:00 -3°C° 0.1 mm 2 m/s 487 mmHg 79%
    14:00 -3°C° 0.1 mm 2 m/s 487 mmHg 79%
    15:00 -3°C° 0.3 mm 2 m/s 486 mmHg 78%
    16:00 -3°C° 0.3 mm 2 m/s 486 mmHg 77%
    17:00 -1°C° 0.3 mm 1 m/s 486 mmHg 77%
    18:00 -4°C° 0.5 mm 2 m/s 486 mmHg 78%
    19:00 -4°C° 0.5 mm 2 m/s 486 mmHg 79%
    20:00 -5°C° 0.5 mm 2 m/s 486 mmHg 80%
    21:00 -6°C° 0.5 mm 3 m/s 486 mmHg 79%
    22:00 -6°C° 0.5 mm 3 m/s 486 mmHg 78%
    23:00 -7°C° 0.5 mm 4 m/s 486 mmHg 77%

    Après-demain, 28 Mars, Jeudi

    Heure Température Précipitation Vent Pression Humidité
    00:00 -6°C° 0.1 mm 3 m/s 486 mmHg 76%
    01:00 -6°C° 0.1 mm 3 m/s 485 mmHg 76%
    02:00 -6°C° 0.1 mm 3 m/s 485 mmHg 75%
    03:00 -7°C° 0 mm 3 m/s 485 mmHg 75%
    04:00 -6°C° 0 mm 2 m/s 485 mmHg 75%
    05:00 -6°C° 0 mm 2 m/s 485 mmHg 74%
    06:00 -5°C° 0.3 mm 2 m/s 485 mmHg 76%
    07:00 -5°C° 0.3 mm 2 m/s 486 mmHg 78%
    08:00 -4°C° 0.3 mm 2 m/s 487 mmHg 79%
    09:00 -4°C° 0.4 mm 2 m/s 487 mmHg 82%
    10:00 -4°C° 0.4 mm 2 m/s 487 mmHg 84%
    11:00 -3°C° 0.4 mm 2 m/s 488 mmHg 87%
    12:00 -3°C° 0.1 mm 2 m/s 488 mmHg 86%
    13:00 -3°C° 0.1 mm 2 m/s 488 mmHg 85%
    14:00 -3°C° 0.1 mm 2 m/s 488 mmHg 85%
    15:00 -3°C° 0.3 mm 2 m/s 488 mmHg 84%
    16:00 -3°C° 0.3 mm 2 m/s 488 mmHg 84%
    17:00 -3°C° 0.3 mm 2 m/s 488 mmHg 84%
    18:00 -4°C° 0 mm 2 m/s 487 mmHg 83%
    19:00 -5°C° 0 mm 2 m/s 487 mmHg 81%
    20:00 -7°C° 0 mm 2 m/s 486 mmHg 80%
    21:00 -8°C° 0 mm 3 m/s 486 mmHg 75%
    22:00 -8°C° 0 mm 3 m/s 485 mmHg 70%
    23:00 -10°C° 0 mm 4 m/s 485 mmHg 64%

    29 Mars, Vendredi

    Heure Température Précipitation Vent Pression Humidité
    00:00 -10°C° 0 mm 4 m/s 485 mmHg 62%
    01:00 -10°C° 0 mm 4 m/s 484 mmHg 60%
    02:00 -10°C° 0 mm 4 m/s 484 mmHg 58%
    03:00 -10°C° 0 mm 4 m/s 484 mmHg 59%
    04:00 -10°C° 0 mm 4 m/s 484 mmHg 59%
    05:00 -10°C° 0 mm 4 m/s 484 mmHg 60%
    06:00 -8°C° 0 mm 3 m/s 484 mmHg 61%
    07:00 -6°C° 0 mm 3 m/s 485 mmHg 61%
    08:00 -5°C° 0 mm 3 m/s 486 mmHg 62%
    09:00 -3°C° 0 mm 2 m/s 486 mmHg 65%
    10:00 -3°C° 0 mm 2 m/s 486 mmHg 69%
    11:00 -2°C° 0 mm 2 m/s 487 mmHg 72%
    12:00 -2°C° 0 mm 2 m/s 486 mmHg 73%
    13:00 -2°C° 0 mm 2 m/s 486 mmHg 74%
    14:00 -2°C° 0 mm 2 m/s 485 mmHg 76%
    15:00 -3°C° 0 mm 2 m/s 485 mmHg 78%
    16:00 -3°C° 0 mm 2 m/s 484 mmHg 81%
    17:00 -4°C° 0 mm 2 m/s 484 mmHg 84%
    18:00 -4°C° 0.2 mm 2 m/s 484 mmHg 86%
    19:00 -6°C° 0.2 mm 3 m/s 484 mmHg 88%
    20:00 -6°C° 0.2 mm 3 m/s 484 mmHg 91%
    21:00 -6°C° 0.3 mm 3 m/s 484 mmHg 92%
    22:00 -6°C° 0.3 mm 2 m/s 484 mmHg 92%
    23:00 -6°C° 0.3 mm 2 m/s 483 mmHg 93%

    30 Mars, Samedi

    Heure Température Précipitation Vent Pression Humidité
    00:00 -6°C° 0 mm 2 m/s 483 mmHg 92%
    01:00 -7°C° 0 mm 2 m/s 482 mmHg 91%
    02:00 -8°C° 0 mm 2 m/s 482 mmHg 90%
    03:00 -8°C° 0 mm 2 m/s 482 mmHg 83%
    04:00 -9°C° 0 mm 2 m/s 482 mmHg 76%
    05:00 -9°C° 0 mm 2 m/s 482 mmHg 69%
    06:00 -8°C° 0.1 mm 2 m/s 483 mmHg 70%
    07:00 -8°C° 0.1 mm 2 m/s 483 mmHg 71%
    08:00 -7°C° 0.1 mm 2 m/s 484 mmHg 73%
    09:00 -7°C° 0.3 mm 2 m/s 485 mmHg 79%
    10:00 -7°C° 0.3 mm 2 m/s 485 mmHg 85%
    11:00 -7°C° 0.3 mm 2 m/s 485 mmHg 92%
    12:00 -8°C° 0.8 mm 2 m/s 485 mmHg 92%
    13:00 -7°C° 0.8 mm 1 m/s 485 mmHg 92%
    14:00 -7°C° 0.8 mm 1 m/s 485 mmHg 93%
    15:00 -7°C° 0.9 mm 1 m/s 485 mmHg 92%
    16:00 -7°C° 0.9 mm 1 m/s 486 mmHg 91%
    17:00 -7°C° 0.9 mm 1 m/s 486 mmHg 90%
    18:00 -7°C° 0.3 mm 1 m/s 486 mmHg 90%
    19:00 -8°C° 0.3 mm 1 m/s 486 mmHg 89%
    20:00 -8°C° 0.3 mm 1 m/s 486 mmHg 89%
    21:00 -9°C° 0.1 mm 1 m/s 486 mmHg 86%
    22:00 -9°C° 0.1 mm 1 m/s 485 mmHg 84%
    23:00 -10°C° 0.1 mm 2 m/s 485 mmHg 81%

    31 Mars, Dimanche

    Heure Température Précipitation Vent Pression Humidité
    00:00 -10°C° 0 mm 2 m/s 485 mmHg 79%
    01:00 -12°C° 0 mm 2 m/s 484 mmHg 76%
    02:00 -13°C° 0 mm 3 m/s 484 mmHg 74%
    03:00 -13°C° 0 mm 3 m/s 484 mmHg 73%
    04:00 -13°C° 0 mm 3 m/s 484 mmHg 71%
    05:00 -13°C° 0 mm 3 m/s 484 mmHg 70%
    06:00 -12°C° 0 mm 3 m/s 485 mmHg 70%
    07:00 -10°C° 0 mm 3 m/s 486 mmHg 70%
    08:00 -8°C° 0 mm 2 m/s 486 mmHg 70%
    09:00 -7°C° 0 mm 2 m/s 487 mmHg 70%
    10:00 -6°C° 0 mm 2 m/s 487 mmHg 70%
    11:00 -5°C° 0 mm 2 m/s 488 mmHg 70%
    12:00 -5°C° 0 mm 2 m/s 488 mmHg 69%
    13:00 -4°C° 0 mm 2 m/s 488 mmHg 69%
    14:00 -4°C° 0 mm 2 m/s 488 mmHg 68%
    15:00 -4°C° 0 mm 2 m/s 487 mmHg 68%
    16:00 -5°C° 0 mm 2 m/s 487 mmHg 68%
    17:00 -5°C° 0 mm 2 m/s 487 mmHg 68%
    18:00 -7°C° 0 mm 3 m/s 486 mmHg 66%
    19:00 -9°C° 0 mm 3 m/s 486 mmHg 64%
    20:00 -11°C° 0 mm 4 m/s 485 mmHg 62%
    21:00 -12°C° 0 mm 5 m/s 485 mmHg 60%
    22:00 -12°C° 0 mm 5 m/s 485 mmHg 58%
    23:00 -12°C° 0 mm 5 m/s 485 mmHg 56%
    Voir plus